Theta_e
310 309 310 310 309 309 309 309 309 310 310 309 310 310 310 310 310 310 310 311 311 311 311 312 312 312 312 312 312 312 313 313 314 314 315 315 315 315 314 314 314 314 313 313 313 314 315 315 316 316 316 317 316 318 318 320 319 317 326 325 322 329 328 327 325 317 317 318 317 316 315 316 316 317 316 317 317 316 316 316 316 316 316 316 316 316 316 316
310 309 310 310 310 310 309 309 309 310 310 310 310 310 310 310 310 310 311 311 311 311 311 311 312 312 312 312 312 313 314 314 314 315 315 315 315 314 314 314 314 314 313 313 313 314 315 316 316 316 316 317 317 318 319 320 318 321 327 322 328 336 326 321 320 316 316 317 315 316 316 315 316 316 316 317 315 315 315 316 315 315 315 315 316 316 315 316
310 310 309 310 309 309 310 310 310 310 310 310 310 310 310 310 310 310 310 311 311 311 311 311 311 311 311 312 312 313 314 314 315 315 314 314 314 314 314 314 315 315 314 314 313 314 316 316 316 316 316 317 317 319 319 320 319 319 321 324 335 331 319 317 317 317 317 316 315 316 316 315 316 316 315 316 315 315 315 315 315 315 316 315 315 315 315 316
310 310 309 309 309 309 310 310 310 310 310 310 310 310 310 310 310 310 310 310 311 311 311 311 311 311 311 311 312 312 313 315 316 314 314 314 314 314 314 315 315 315 314 314 313 314 316 316 316 316 316 316 316 318 319 319 319 318 319 327 330 319 317 320 317 319 318 316 315 315 315 315 315 316 316 315 316 316 315 315 315 315 316 315 316 315 315 315
310 310 310 309 309 310 310 309 310 310 310 310 310 310 310 310 310 310 310 310 310 310 310 311 311 311 311 311 312 312 313 316 317 315 314 314 315 315 315 315 315 315 315 314 314 314 315 316 315 315 316 315 315 317 318 318 318 319 319 322 321 316 318 319 317 319 318 317 316 315 315 315 316 316 316 315 316 316 315 315 316 315 316 316 316 315 315 315
309 309 309 309 309 309 309 309 309 310 310 310 310 310 310 310 310 310 310 310 310 310 310 311 311 311 312 312 313 313 314 316 316 315 316 315 315 315 315 315 316 315 314 314 314 314 315 316 315 315 315 315 315 316 316 317 318 320 320 317 317 318 317 318 318 318 317 316 315 314 316 315 315 315 315 315 315 316 315 316 316 316 316 316 316 315 316 316
309 308 309 309 309 309 309 309 309 309 310 309 310 310 310 310 310 310 310 310 311 311 312 311 312 312 313 314 314 315 315 315 314 315 316 315 315 315 315 316 315 315 314 313 313 314 314 315 315 314 314 314 314 315 315 315 315 320 321 317 317 318 316 318 318 317 316 315 314 315 315 314 314 315 315 314 315 315 316 316 316 316 316 315 316 316 316 316
308 308 308 308 308 309 309 309 309 309 309 309 310 310 310 310 311 311 311 311 312 312 313 313 314 314 315 316 317 318 317 316 316 317 317 316 316 316 316 316 315 314 314 314 314 314 314 314 315 314 314 314 314 314 314 314 315 318 320 316 315 316 315 316 316 315 316 315 315 315 313 313 314 314 313 314 316 316 316 316 316 316 316 316 316 316 315 315
308 308 308 308 309 308 309 309 309 310 310 310 311 311 311 312 312 312 312 313 313 314 315 316 317 317 319 319 318 319 319 318 319 320 319 318 318 316 316 316 314 314 314 314 314 314 314 314 315 315 314 314 315 314 314 315 315 315 316 314 313 314 314 315 315 315 315 315 315 313 313 313 313 313 313 315 316 317 317 316 316 316 315 316 315 314 314 314
309 309 309 309 309 310 310 310 310 311 311 312 313 313 314 314 315 315 315 316 317 317 318 318 319 319 319 318 318 319 320 320 321 321 320 320 319 318 317 316 314 314 315 314 314 314 315 315 315 315 315 315 315 314 313 315 315 314 313 313 313 313 314 314 314 315 314 314 313 313 314 313 312 313 314 317 317 317 317 316 316 316 315 315 315 313 313 314
311 312 312 312 312 313 313 314 314 315 315 316 316 317 318 317 318 318 318 318 318 318 317 317 317 317 316 315 315 317 319 319 319 319 319 320 319 317 316 314 314 315 317 316 314 314 314 315 316 315 316 315 314 314 314 314 314 313 313 314 314 313 314 314 313 314 314 314 314 313 313 313 312 313 316 316 317 317 316 317 316 315 315 314 313 313 314 314
315 316 316 317 317 317 317 318 318 318 319 319 318 318 318 318 317 317 316 316 316 315 315 315 314 314 314 313 314 316 317 317 317 316 316 318 318 317 315 315 316 317 319 318 315 314 315 315 316 316 316 315 314 314 314 314 314 313 313 315 315 313 315 314 313 313 312 314 314 313 314 316 315 315 317 316 317 317 315 316 315 313 313 313 313 313 314 314
318 318 318 318 318 318 318 318 317 318 318 317 317 316 315 315 315 315 315 314 314 314 314 314 313 314 313 313 315 317 317 316 316 316 315 316 317 317 316 317 317 317 318 318 316 314 315 315 316 316 316 315 315 314 314 314 313 315 313 313 315 315 317 315 312 313 312 313 313 313 316 323 323 316 315 317 316 316 315 316 314 312 312 312 313 313 313 314
317 317 317 317 316 316 316 316 316 315 315 315 315 314 314 314 314 314 314 314 314 314 314 314 315 315 314 314 316 316 316 316 316 316 316 315 315 316 316 316 316 316 316 317 315 315 315 316 316 316 316 315 315 314 315 314 314 315 312 315 316 315 321 319 312 313 315 314 312 313 317 323 324 317 315 317 316 315 315 316 312 311 313 312 313 313 312 313
316 315 315 315 315 315 315 314 314 314 314 314 314 314 314 314 314 314 314 314 314 315 315 316 316 315 314 315 316 316 316 316 316 316 316 315 315 315 316 315 315 315 315 315 314 315 315 316 316 316 316 315 314 315 318 319 321 319 313 322 323 315 321 321 312 313 316 315 311 313 317 319 318 315 316 317 316 316 314 314 312 311 313 312 312 312 311 312
314 315 314 314 314 314 314 313 314 314 314 314 314 314 313 313 314 314 314 315 315 316 317 317 317 315 314 315 316 317 317 317 316 316 316 315 315 315 315 315 315 315 315 314 313 315 315 316 315 315 315 313 315 321 324 321 325 323 315 321 326 317 317 318 315 313 313 314 312 313 317 318 316 315 316 317 316 314 313 312 311 311 313 312 311 311 310 311
314 313 313 313 313 313 313 313 313 313 313 313 313 313 313 313 313 314 316 316 318 319 317 317 317 315 316 316 316 317 317 317 316 316 316 315 315 315 314 315 315 314 314 314 314 314 314 315 314 315 314 312 315 321 323 320 322 325 318 317 321 318 315 316 318 315 312 314 315 314 315 316 316 313 314 316 314 313 313 311 311 311 311 310 310 310 309 310
313 313 313 313 313 313 313 313 313 313 312 312 312 312 313 314 315 316 318 319 319 318 317 317 316 317 318 317 316 317 317 317 316 316 316 315 314 314 314 314 314 314 313 312 313 313 313 312 313 316 315 312 315 317 320 321 321 324 321 318 319 319 316 316 318 316 315 317 316 317 316 315 316 313 312 314 313 313 313 311 310 310 309 308 308 308 308 308
312 312 313 313 313 313 313 312 312 312 312 312 313 314 315 317 318 319 320 320 319 318 319 317 316 319 319 317 316 317 318 317 316 316 315 314 314 314 314 314 314 313 312 313 314 312 312 313 314 317 316 315 315 315 317 319 319 320 319 318 318 318 318 316 316 315 313 315 317 317 317 316 317 315 312 312 312 312 311 310 310 308 307 306 306 306 306 306
312 313 312 312 312 312 312 312 312 312 313 314 316 317 318 319 321 321 319 319 319 319 320 318 317 317 317 317 317 318 318 317 316 315 314 314 315 315 314 314 314 313 313 318 318 311 311 316 317 317 317 316 315 314 314 315 315 315 315 315 316 316 316 315 317 317 312 314 319 318 317 317 318 316 311 310 312 311 309 309 308 306 305 305 305 304 305 305
312 312 312 312 312 312 312 312 313 314 314 317 319 320 320 321 322 322 319 319 320 319 320 319 318 318 318 318 319 319 318 317 316 316 315 315 316 316 314 313 314 315 314 315 315 311 312 317 318 318 316 315 315 313 312 312 312 312 313 315 315 316 316 315 317 317 313 313 320 320 316 318 318 314 309 309 310 309 307 307 306 305 304 304 304 303 304 304
313 313 312 312 312 312 313 314 315 316 317 319 321 321 322 322 322 321 320 320 320 320 320 320 320 320 320 319 319 319 318 318 318 317 317 316 316 316 314 314 316 317 314 312 313 313 314 317 317 315 312 312 313 312 312 313 313 313 315 315 317 318 318 318 318 318 315 314 321 323 316 318 317 311 308 308 308 306 306 306 305 304 304 303 303 303 303 303
313 313 313 313 314 314 315 316 317 318 319 321 322 323 323 323 322 322 321 319 320 321 321 321 321 320 320 320 320 319 318 318 319 319 318 315 315 315 313 313 315 316 315 314 316 316 317 319 316 311 310 312 314 313 313 314 314 316 317 316 318 318 318 321 321 319 317 314 317 319 315 317 315 310 309 307 306 306 305 304 304 303 303 302 302 302 302 303
315 314 315 315 316 317 317 317 318 319 320 321 323 323 323 323 323 322 320 318 319 321 320 321 320 320 321 320 320 320 319 319 319 318 318 316 315 314 313 313 314 315 315 315 315 316 318 318 313 311 313 314 314 314 314 314 316 320 321 318 318 320 319 321 321 318 318 317 316 314 317 324 320 313 312 308 306 306 304 303 303 302 302 302 301 302 302 302
316 316 317 317 318 319 319 319 320 320 321 322 323 323 323 323 322 320 318 319 321 320 319 320 319 319 319 318 319 318 317 318 318 318 317 316 315 314 313 313 314 316 315 314 313 315 316 314 312 315 316 315 315 316 317 317 318 322 325 321 319 321 321 320 319 318 320 322 317 313 320 331 326 316 312 309 307 306 304 303 303 302 302 301 301 300 301 301
317 317 318 318 320 320 320 320 321 321 322 322 323 323 323 322 321 319 319 323 325 322 319 319 319 319 317 317 317 316 318 319 316 317 317 315 315 314 315 314 314 315 315 314 314 316 316 313 314 318 319 318 317 319 321 320 318 320 322 321 322 322 320 319 317 317 322 323 317 312 317 325 325 319 314 311 309 306 304 303 302 302 301 300 300 299 300 301
317 317 318 319 320 320 320 321 322 322 323 323 323 323 323 323 321 318 322 328 327 323 320 318 317 317 314 315 316 318 323 320 314 315 315 315 314 313 315 316 314 314 313 313 318 319 317 315 315 317 319 320 319 319 321 320 321 323 320 320 324 320 317 318 315 316 320 319 318 319 315 317 320 318 313 312 311 308 304 304 302 301 300 300 299 299 299 300
318 317 318 319 320 320 320 321 323 323 323 324 324 324 324 323 321 319 325 331 326 319 318 315 314 314 312 314 315 316 318 316 314 315 313 313 314 312 315 316 317 317 312 314 323 321 315 316 318 318 317 318 320 321 321 319 321 324 320 318 320 317 317 318 314 317 317 313 320 324 315 314 320 320 314 311 313 311 306 304 302 301 300 299 298 298 298 298
320 318 318 318 320 321 321 321 323 323 324 323 324 324 324 323 321 319 325 329 324 317 315 313 312 312 311 312 313 312 312 311 313 313 312 313 313 312 314 313 313 315 310 312 322 321 314 313 316 319 319 319 323 322 319 321 320 317 316 317 320 320 319 317 315 318 317 314 320 322 317 317 322 325 318 312 314 315 307 304 302 300 300 299 298 298 297 297
321 320 319 318 320 321 320 321 322 323 324 323 324 325 324 323 322 323 327 327 323 318 312 311 312 310 310 312 311 309 309 310 311 311 311 312 312 311 312 311 310 314 316 316 319 318 313 310 310 315 317 318 320 315 312 316 314 311 315 320 324 325 322 320 320 319 317 319 322 321 318 317 320 327 323 313 314 313 307 303 302 300 299 299 298 297 297 298
323 322 321 320 320 320 320 321 321 323 324 323 324 324 323 322 322 327 328 323 321 319 312 311 312 310 311 315 314 310 309 310 310 311 312 311 312 311 310 311 311 317 322 320 320 318 314 312 312 313 312 312 316 315 310 311 310 313 321 323 323 326 323 322 323 320 319 324 326 321 317 315 318 326 321 312 309 309 307 304 301 299 299 298 298 297 297 298
323 323 323 323 322 321 321 321 321 323 323 323 324 323 322 323 324 328 326 321 324 322 315 315 313 311 313 315 316 313 311 312 310 311 315 314 314 313 313 318 317 320 323 320 321 321 318 318 314 312 311 311 317 319 314 314 314 317 321 322 322 322 322 322 322 321 321 323 321 320 317 315 318 320 313 308 305 305 305 303 300 299 298 298 298 297 298 298
323 323 323 323 323 323 322 322 322 323 323 323 323 321 321 325 327 327 325 325 326 320 317 319 316 315 316 316 317 314 313 315 311 311 314 314 314 314 316 319 318 319 323 321 321 321 323 323 315 312 313 312 315 318 317 319 317 315 317 321 322 321 322 326 323 318 320 321 318 317 317 318 322 316 307 303 302 302 302 301 300 299 298 298 298 298 298 298
323 322 322 322 323 323 322 323 323 322 323 322 321 320 321 325 325 324 325 326 324 320 319 319 317 317 317 317 320 316 314 317 313 311 314 314 315 317 318 316 314 318 321 319 319 321 324 325 320 317 316 314 314 314 320 323 317 313 317 318 320 323 325 326 324 320 321 323 319 316 317 323 325 313 302 301 300 299 301 300 299 299 298 298 298 298 299 299
322 321 322 322 322 322 322 323 322 321 322 320 319 320 322 323 323 323 325 324 323 322 320 319 318 317 318 320 322 318 316 320 315 312 316 315 317 320 321 318 315 318 321 320 321 320 320 325 324 316 312 313 314 312 315 320 318 313 314 316 318 323 323 320 321 321 320 321 320 319 320 318 314 306 300 301 300 298 299 299 298 298 297 298 298 298 298 299
321 321 321 321 321 321 321 322 321 321 321 318 319 322 321 322 323 324 324 322 322 321 319 321 321 319 321 324 323 319 317 320 317 314 317 317 318 320 322 323 317 315 318 320 322 320 319 324 322 313 311 312 312 312 311 314 319 314 312 318 318 317 320 320 319 316 315 318 318 319 320 312 307 306 302 301 301 299 299 298 298 298 297 297 297 297 298 299
320 320 320 319 319 320 320 320 320 321 319 317 320 321 319 319 321 321 321 318 319 320 320 323 323 320 322 323 324 322 319 320 318 316 319 320 318 319 321 321 316 314 316 318 321 321 320 324 322 315 316 312 308 311 310 307 313 316 315 319 315 313 318 321 319 318 317 318 317 317 319 315 315 313 304 301 302 301 300 298 297 297 298 298 298 298 299 299
319 319 319 319 318 318 319 319 319 320 319 318 319 320 318 319 318 318 318 316 319 323 323 325 323 321 323 323 324 323 320 321 319 318 322 322 319 319 320 319 315 313 313 313 317 320 318 322 322 315 315 314 309 312 314 309 309 314 315 314 313 317 320 317 317 319 318 317 319 320 317 315 317 314 308 306 305 302 300 300 298 298 297 298 298 298 298 298
318 318 318 318 318 318 318 318 318 319 318 317 318 317 318 319 317 316 317 316 318 322 324 325 323 321 322 323 325 323 320 321 320 318 321 321 319 317 316 317 316 312 311 312 316 320 317 318 321 316 313 314 313 314 319 316 309 309 311 311 313 318 320 317 316 318 318 316 318 319 315 316 318 315 314 314 306 301 301 301 299 298 297 298 299 298 298 298
317 316 316 317 317 317 317 317 318 318 318 315 315 315 315 317 316 316 317 317 317 320 322 323 322 321 322 322 323 323 321 321 321 319 320 320 319 317 315 317 317 313 311 310 314 318 317 316 319 318 313 314 317 317 318 319 314 312 314 314 314 314 316 317 315 316 319 318 317 316 314 318 318 310 310 312 306 301 300 300 299 298 298 299 299 299 299 299
314 314 314 315 317 317 317 317 317 317 317 316 314 314 315 316 317 317 316 316 317 318 319 321 322 322 321 321 322 322 321 322 321 320 320 320 319 318 315 313 314 314 313 312 315 317 316 317 321 319 316 317 321 318 314 315 318 318 317 318 316 315 316 316 315 315 317 316 317 316 314 316 313 306 306 308 304 301 300 299 299 299 300 300 300 300 300 299
311 312 313 313 315 316 316 316 316 316 317 317 316 315 316 316 317 318 317 316 317 317 316 318 320 321 320 320 321 321 320 321 319 319 320 320 320 320 314 310 310 312 314 316 317 313 313 318 321 319 318 318 317 312 308 312 317 318 317 318 317 316 317 316 315 316 315 315 316 316 316 315 309 304 305 304 301 300 299 299 300 300 301 301 300 300 300 299
308 310 311 312 313 314 315 316 316 316 316 316 316 316 316 316 316 317 317 316 316 316 316 316 317 319 319 319 319 319 319 319 318 318 319 319 319 316 311 310 310 310 314 318 316 312 313 317 318 319 320 317 314 313 311 312 315 315 315 316 315 316 317 316 315 316 316 316 316 315 316 315 308 302 301 301 300 300 300 300 301 301 300 301 301 300 300 299
306 308 310 311 311 313 315 316 316 316 316 315 315 315 315 316 315 316 317 317 316 316 317 317 316 317 317 317 317 317 317 318 317 316 318 319 316 310 307 309 310 309 313 317 315 312 314 316 316 318 320 317 315 316 316 315 316 316 315 314 313 315 315 313 312 313 314 315 315 314 315 315 309 303 301 301 301 300 300 301 301 301 301 302 302 301 301 300
305 307 308 310 311 312 314 314 313 314 315 315 315 315 315 314 314 315 316 316 315 315 316 317 315 315 316 315 316 316 315 317 317 314 315 317 314 309 306 308 309 308 311 312 311 312 314 315 316 317 317 317 316 316 316 316 315 313 313 312 311 313 314 313 312 312 313 313 313 312 314 314 311 306 304 304 303 303 302 301 301 302 302 303 303 302 301 300
305 307 308 308 310 311 312 312 311 311 313 314 315 314 314 314 313 313 315 315 315 313 313 314 313 314 316 315 315 316 315 315 315 314 314 316 314 309 306 306 307 307 308 308 309 312 314 313 314 316 315 315 315 314 312 313 313 312 312 312 311 311 311 311 311 311 311 311 309 309 310 311 310 308 307 306 306 306 304 301 302 302 303 303 303 302 301 300
305 307 307 307 309 310 310 311 310 310 310 311 313 312 312 313 312 312 313 314 314 314 313 312 313 314 316 315 315 315 314 314 313 313 315 315 313 308 305 305 306 306 307 307 307 310 313 312 311 313 313 312 312 312 309 309 311 311 310 310 310 309 308 309 308 308 310 310 309 309 308 308 309 308 308 308 307 306 302 301 302 303 303 303 302 301 300 298
304 306 305 306 308 309 310 310 310 310 309 309 310 311 311 312 311 312 312 312 312 313 313 313 313 314 315 315 315 314 314 314 313 313 314 313 310 309 306 305 305 305 305 306 305 308 314 313 309 309 311 309 308 308 307 306 308 309 309 309 309 308 307 306 306 306 308 308 307 307 306 307 307 306 306 307 306 305 303 303 304 304 304 303 301 299 298 296
302 303 303 304 306 306 308 309 309 310 310 309 309 310 310 311 310 310 311 312 312 312 313 313 313 313 314 314 314 314 313 313 312 311 312 312 311 310 309 308 306 304 304 306 305 305 310 312 307 307 310 308 304 304 304 304 305 306 306 306 306 306 305 304 304 304 305 305 305 305 305 305 304 303 304 304 303 303 303 303 303 302 302 302 300 298 297 295
300 301 301 301 302 303 305 308 308 309 309 309 309 309 309 310 310 309 309 311 312 312 311 312 312 312 312 313 313 313 312 313 314 312 311 312 310 309 310 310 307 303 304 307 305 303 307 309 305 306 310 306 302 303 305 304 304 304 304 303 303 303 302 303 302 302 302 302 303 303 303 303 302 301 301 301 301 300 300 300 300 300 301 301 300 298 297 296
299 299 299 299 301 302 304 306 307 308 308 309 309 309 308 308 309 309 309 309 310 311 311 311 312 311 310 310 312 312 309 310 312 310 308 309 309 307 308 308 306 306 306 305 304 304 306 306 304 306 309 305 301 302 303 303 303 303 302 302 301 301 302 302 301 302 302 302 301 301 301 302 301 299 299 299 297 296 297 298 298 299 300 300 299 298 297 295
298 298 297 298 301 302 303 305 307 307 307 308 308 308 308 307 306 308 309 307 306 307 309 309 308 308 308 309 310 310 306 305 305 304 303 304 304 303 304 304 303 305 305 304 304 304 306 307 305 305 307 304 299 300 302 302 303 301 300 299 299 299 300 299 300 301 301 300 301 301 300 301 300 299 300 299 296 294 294 296 297 298 299 299 299 298 296 295
Wind_Speed
7 7 7 7 7 7 7 6 6 6 5 5 5 4 4 4 4 4 4 4 4 4 5 5 6 6 7 8 9 9 11 11 13 16 16 13 8 3 3 3 2 3 4 4 2 1 2 2 2 1 0 1 1 1 1 1 2 1 3 3 1 3 3 4 6 3 1 4 6 9 6 3 5 6 5 6 8 13 17 22 22 19 20 21 21 20 19 19
8 8 8 8 8 8 8 7 7 7 6 6 6 6 6 5 6 6 6 6 6 6 6 7 7 7 8 9 9 11 11 13 15 14 10 3 3 7 7 4 5 5 5 4 3 1 4 4 2 0 1 2 1 1 2 3 4 3 3 2 3 5 5 5 5 4 2 4 8 10 6 4 7 9 6 4 8 12 12 22 27 24 24 22 19 17 18 19
9 9 9 9 8 8 8 8 7 7 7 7 7 7 7 7 7 7 7 8 8 8 8 8 9 9 9 9 10 11 12 16 14 5 3 7 8 7 4 5 7 8 7 4 4 2 6 4 1 0 1 1 1 2 3 3 5 3 3 2 6 7 5 8 10 10 8 7 8 10 9 9 14 12 6 4 9 11 9 18 23 25 27 24 22 20 20 20
10 10 10 10 9 9 9 8 8 8 8 8 8 8 8 8 8 9 9 9 9 10 10 10 10 10 10 10 11 11 14 16 7 4 6 6 4 2 3 7 9 11 8 6 4 4 7 5 1 2 4 2 2 4 4 6 5 3 5 5 6 5 3 11 14 14 13 9 10 13 13 14 18 14 7 5 6 8 14 21 22 25 31 29 27 25 24 23
11 11 11 11 10 10 10 9 9 9 9 10 10 10 10 10 10 10 10 11 11 11 11 11 11 11 11 11 11 11 12 8 1 5 4 3 2 6 8 10 11 11 9 6 4 5 6 6 3 4 4 3 2 2 4 8 7 3 5 9 9 4 3 11 14 13 14 14 15 15 10 11 14 14 12 7 4 10 21 28 27 28 30 29 27 26 25 24
12 12 12 12 12 11 11 11 11 11 11 11 11 11 11 11 11 11 11 11 11 12 12 12 12 12 12 12 12 12 7 2 3 4 5 6 9 12 11 12 12 12 8 5 5 5 6 7 6 6 5 3 3 4 5 7 8 4 5 8 13 12 9 14 15 13 15 15 15 12 10 12 11 15 16 10 14 23 30 31 28 28 26 25 25 23 23 22
13 13 13 13 13 12 12 12 12 12 12 12 12 12 12 12 12 12 12 12 12 12 12 13 13 13 13 13 14 12 9 11 11 10 11 13 13 13 10 11 11 9 5 4 5 5 7 8 8 7 4 1 3 6 6 5 7 7 5 6 12 15 13 17 17 16 17 17 18 16 16 16 10 13 17 20 30 32 29 25 23 24 24 24 23 21 20 20
13 13 13 13 13 13 13 13 13 12 12 12 12 12 12 13 13 13 13 13 13 13 13 14 14 15 14 14 13 10 12 16 12 10 12 13 13 11 9 10 9 6 4 4 5 6 7 8 9 7 3 2 3 5 4 5 4 6 5 6 8 10 11 15 16 19 21 21 23 18 17 20 16 15 17 29 35 26 19 19 19 21 23 23 21 20 20 20
13 13 13 14 14 13 13 13 13 13 13 13 13 13 13 14 14 14 14 14 14 14 15 15 15 15 14 13 11 9 13 13 8 6 8 9 10 9 10 10 8 5 4 5 7 8 9 8 8 7 5 4 4 4 2 1 2 4 5 4 6 10 13 15 17 23 23 22 21 12 15 24 21 12 13 26 24 15 16 18 18 20 21 19 17 19 18 17
12 12 13 14 14 13 13 13 13 13 14 14 14 14 14 15 15 15 15 15 15 15 15 14 15 14 13 13 8 6 10 9 6 7 6 6 7 8 10 9 8 6 6 7 8 11 10 7 6 5 5 4 3 3 1 1 3 4 5 8 10 12 17 15 17 26 24 21 19 9 12 21 15 2 7 20 15 12 20 20 19 21 18 14 14 14 12 13
13 13 14 14 14 14 14 14 14 14 14 15 15 15 15 15 15 15 15 15 15 14 14 14 15 14 14 13 10 9 11 10 9 10 9 8 8 9 10 9 9 8 8 9 10 12 12 10 7 4 4 3 2 4 3 3 3 6 8 10 13 13 18 18 17 24 18 12 13 7 8 14 6 2 11 19 13 15 22 23 23 20 14 11 9 8 10 12
14 15 15 15 15 15 15 15 15 15 15 15 15 15 15 15 15 15 14 14 14 13 13 13 13 13 13 14 16 15 14 14 13 13 12 11 11 11 11 11 11 12 12 11 12 13 13 12 10 6 5 2 1 3 3 4 6 9 7 6 10 9 12 19 15 14 8 4 7 3 3 9 1 8 18 18 15 18 23 26 23 15 11 9 6 6 7 9
15 16 16 16 15 15 15 15 15 15 15 14 14 14 14 14 14 13 13 13 13 12 12 12 12 12 11 13 16 14 12 13 13 12 13 14 14 14 13 13 14 14 13 11 13 13 13 13 10 8 7 4 2 2 4 7 8 9 4 1 6 7 7 13 7 4 3 5 6 5 1 8 6 14 19 15 17 20 23 26 18 13 12 9 5 5 3 2
16 16 16 15 15 15 15 14 14 14 14 14 13 13 13 13 13 12 12 12 11 11 11 11 11 10 10 13 14 13 13 14 14 13 13 15 16 15 14 14 13 11 10 11 12 13 13 11 9 8 7 6 4 3 5 7 5 4 2 1 3 2 5 10 6 1 4 6 6 8 2 7 8 15 15 13 16 17 21 24 16 14 11 8 5 5 5 3
16 16 15 15 14 14 14 13 13 13 13 13 13 12 12 12 12 12 11 11 11 10 10 10 10 8 10 13 13 12 13 13 13 14 13 14 14 13 11 10 9 9 9 11 12 12 12 9 7 6 5 6 4 2 4 4 3 2 1 3 3 2 5 11 10 3 3 4 4 8 2 6 8 14 16 15 19 18 19 21 15 12 9 9 7 8 9 7
15 15 14 14 13 13 13 12 12 12 12 12 12 11 11 11 11 11 10 10 10 10 10 9 9 7 7 10 11 10 11 10 9 10 11 12 12 10 7 6 7 8 10 11 11 11 10 7 5 5 4 4 1 4 4 4 4 3 1 4 3 3 3 7 9 3 3 2 2 4 2 5 5 12 20 23 24 21 21 20 12 9 9 9 9 11 10 9
14 14 13 13 13 12 11 11 11 11 11 11 10 10 10 10 10 10 10 10 10 10 9 7 7 6 8 11 10 9 9 9 8 8 9 9 10 7 5 6 7 8 9 9 9 7 7 5 3 3 2 0 3 5 3 2 4 4 1 3 4 4 3 3 7 6 4 3 1 2 3 6 8 14 25 28 23 20 20 16 8 9 9 11 12 12 11 10
13 12 12 12 11 11 10 10 10 9 10 9 9 8 8 9 9 10 11 11 10 8 7 8 6 3 8 13 11 8 7 7 8 9 8 8 7 5 6 6 6 7 7 6 6 5 5 3 3 1 2 2 3 5 2 5 5 5 3 3 4 3 4 5 5 5 6 6 3 6 5 8 9 13 21 24 19 16 15 7 10 12 13 14 14 14 14 13
12 11 11 10 9 9 8 8 8 8 8 8 8 7 7 8 9 11 12 12 10 5 4 7 9 4 3 6 7 7 6 6 8 10 10 9 7 6 6 5 6 7 6 3 3 6 7 4 4 1 2 3 5 7 9 9 7 7 5 3 3 4 5 6 6 5 4 5 5 7 7 8 8 10 15 18 14 12 8 7 14 15 17 17 17 18 17 17
11 10 9 8 8 7 6 6 6 6 6 6 6 6 6 6 4 6 9 12 13 11 9 9 11 12 10 6 6 7 6 7 9 11 11 10 9 8 8 7 6 6 4 4 3 4 7 4 2 5 7 9 10 11 11 7 4 3 3 3 4 5 6 6 6 6 2 2 6 5 4 7 10 9 10 13 12 12 8 13 17 17 18 19 19 19 18 19
10 9 8 7 7 6 5 6 5 5 5 5 5 5 5 4 2 3 6 9 13 15 16 16 15 19 19 16 12 8 8 8 10 12 12 12 11 8 8 8 5 2 3 4 3 2 5 5 6 10 11 10 9 8 7 5 3 3 3 5 6 5 6 7 6 6 3 0 5 3 3 8 10 6 9 12 13 14 11 13 15 17 19 19 19 19 19 19
9 9 8 7 7 6 6 6 5 6 5 5 5 5 5 5 5 6 6 8 14 16 18 19 21 24 25 24 20 15 13 9 11 15 14 14 14 10 9 8 4 3 3 4 4 2 2 3 10 15 10 6 4 3 5 5 4 3 2 2 5 4 4 6 6 4 2 1 5 4 4 8 8 4 9 12 13 13 14 15 14 17 19 18 18 19 20 20
9 9 9 8 7 7 7 7 6 6 6 6 6 6 6 6 5 6 5 6 12 16 18 20 23 26 27 25 22 20 19 14 13 16 16 15 16 13 10 9 5 3 3 4 5 4 3 6 13 15 7 4 5 4 5 3 2 3 3 3 5 4 1 4 5 4 3 1 3 3 3 7 4 5 7 11 15 15 17 18 17 19 20 19 18 19 21 22
10 10 9 9 8 8 8 8 7 6 7 7 7 7 6 5 5 6 5 4 7 12 17 20 20 21 22 21 18 18 20 17 11 12 16 17 15 11 9 9 6 3 4 7 9 7 6 7 8 5 6 7 7 6 4 3 3 4 6 6 5 4 5 6 3 4 4 4 2 3 4 5 2 3 3 7 12 13 14 17 18 18 19 19 20 20 22 23
12 11 10 10 9 9 8 8 7 7 8 8 8 8 6 4 4 4 4 3 4 7 10 12 12 12 14 14 14 14 14 13 10 9 14 18 17 9 5 9 7 4 7 7 7 6 7 10 5 4 4 7 6 7 5 6 3 4 5 9 9 7 7 5 2 4 4 4 3 4 4 5 4 1 4 3 6 7 9 13 14 14 16 19 20 21 22 23
13 13 12 11 10 9 9 7 7 7 8 9 9 8 5 3 1 3 3 2 3 5 4 5 6 6 8 9 11 11 5 6 11 12 14 17 18 10 3 5 5 5 7 5 3 2 5 11 8 5 5 6 6 6 5 7 4 3 5 7 8 5 4 2 2 3 0 4 4 3 2 5 6 4 5 5 4 5 6 9 10 12 14 17 18 20 22 24
15 14 13 12 11 11 9 6 7 8 8 8 8 8 6 3 2 2 3 2 4 3 5 4 4 4 5 8 14 11 2 4 8 11 15 16 15 11 5 3 3 4 4 4 1 3 4 5 4 7 6 5 5 5 6 8 7 3 4 5 7 6 4 3 3 2 3 3 5 3 2 3 5 5 5 7 6 5 4 5 7 10 13 15 17 20 22 24
16 16 15 14 14 12 10 8 9 10 9 8 8 9 7 4 4 2 3 2 3 3 4 3 4 4 6 11 14 8 4 7 6 6 13 14 12 9 5 5 5 4 3 5 3 5 2 3 5 8 6 5 6 5 7 10 5 6 5 7 6 5 5 4 4 1 1 1 5 4 1 2 5 5 1 5 5 4 5 4 4 7 11 14 17 19 21 23
16 16 16 15 14 13 13 13 13 12 12 10 9 9 7 6 4 3 2 3 1 3 2 3 4 5 8 10 8 4 5 4 2 6 11 10 10 6 2 5 5 3 2 3 5 5 1 3 5 7 6 6 5 3 6 9 4 5 6 6 4 4 4 4 4 2 2 1 5 5 3 2 5 5 2 2 3 5 5 4 4 8 10 13 16 18 20 21
17 17 17 17 17 17 17 18 17 14 13 13 12 10 8 8 5 2 4 4 1 2 3 4 4 5 8 7 2 2 3 1 2 7 7 5 7 4 2 3 2 2 1 3 2 5 2 1 1 3 4 5 5 2 1 4 5 6 6 5 5 5 4 3 2 4 2 3 6 8 8 5 3 5 3 3 3 5 8 5 5 8 11 13 15 17 19 21
20 20 19 20 22 22 21 22 19 15 16 15 13 12 9 6 3 3 5 1 2 2 3 3 2 4 7 5 3 2 1 0 3 7 4 2 4 2 3 2 1 3 3 5 3 5 5 2 2 3 3 4 7 4 4 3 4 6 5 4 3 4 4 4 4 3 1 5 6 5 6 5 4 5 3 3 5 2 9 9 9 11 13 14 15 16 19 20
23 23 22 23 25 24 24 23 19 16 17 16 16 14 8 4 3 4 3 1 0 2 3 3 2 4 5 3 3 4 3 1 3 4 3 3 3 3 3 4 3 2 2 4 2 5 4 4 4 2 2 4 6 3 3 5 5 5 4 5 3 2 3 2 2 0 3 6 5 3 5 2 6 4 3 4 7 5 5 12 15 17 17 17 17 17 19 20
25 24 24 26 27 26 24 23 21 18 16 18 18 12 5 3 5 4 3 2 1 1 2 3 2 3 5 3 2 4 3 2 4 4 2 3 3 4 4 3 5 2 1 4 2 2 3 6 3 1 3 5 7 4 2 1 1 4 4 4 4 2 1 3 3 2 4 5 3 2 2 2 4 2 4 5 6 3 10 17 19 20 21 19 19 19 19 20
23 22 24 25 27 28 25 23 23 18 14 18 16 7 4 5 3 3 5 4 0 1 2 3 2 3 4 2 3 4 2 2 5 4 2 4 3 3 4 4 4 2 2 3 2 3 2 5 3 4 3 6 8 6 6 5 3 4 4 5 5 4 4 4 4 3 4 4 3 2 1 2 3 2 4 3 4 8 17 20 20 20 20 20 20 20 20 19
20 19 21 22 24 27 25 23 21 15 16 20 11 3 4 5 1 1 5 3 1 1 2 3 3 3 2 2 2 3 1 2 4 4 2 4 3 3 3 5 6 4 3 2 2 2 2 5 6 2 1 8 7 4 6 6 2 2 3 4 3 4 5 2 3 4 3 3 3 2 2 2 3 1 3 3 6 9 14 18 20 20 19 20 20 19 19 18
15 15 16 18 21 23 23 23 21 19 22 19 7 2 6 3 2 4 2 1 3 4 4 2 3 3 2 2 2 2 0 1 3 3 2 2 2 4 4 4 7 8 6 4 2 2 2 5 5 3 0 5 5 4 4 3 2 2 2 3 4 4 6 3 2 1 3 1 4 2 2 2 0 1 2 3 4 5 7 11 15 17 18 19 19 18 18 17
12 12 11 11 15 17 19 19 19 21 23 14 4 5 3 1 3 4 1 1 2 4 6 3 2 4 4 2 3 4 1 1 2 2 2 2 2 5 4 4 5 10 12 8 3 3 4 4 5 1 3 4 3 6 4 3 3 5 3 5 3 1 4 4 1 3 3 2 4 1 3 3 2 2 1 1 3 4 4 6 10 14 17 18 19 19 18 17
10 10 8 8 10 13 14 14 15 18 16 6 5 6 2 1 3 1 1 2 2 3 4 4 3 3 4 3 3 3 3 2 3 3 2 2 3 4 5 3 3 6 12 10 3 2 4 2 6 1 3 2 1 6 3 5 3 4 3 3 3 1 0 1 1 1 1 3 4 3 3 3 4 4 3 5 9 9 7 6 8 13 18 20 20 19 18 17
9 8 7 10 13 13 13 14 14 14 8 2 4 5 1 2 5 5 4 2 1 2 2 3 2 1 2 4 3 2 4 4 4 3 2 2 3 3 4 3 2 2 6 9 5 2 3 2 4 2 0 1 2 2 3 2 2 3 1 1 1 2 3 2 2 3 3 3 4 5 5 3 5 5 8 11 13 12 11 9 10 14 20 21 21 20 18 17
9 5 5 11 16 16 15 15 13 10 5 2 3 3 2 2 6 12 12 7 2 2 2 2 3 2 3 3 3 2 3 3 5 3 3 3 3 2 1 1 2 1 0 5 5 0 2 2 3 3 3 1 2 2 6 6 3 2 2 1 1 1 1 1 1 2 3 3 3 4 6 5 4 3 7 9 8 11 14 11 10 14 20 21 21 20 18 16
11 4 4 11 15 19 20 14 8 6 3 4 4 3 4 4 4 9 14 11 6 3 3 3 3 4 4 3 3 3 3 3 4 4 3 3 3 3 0 1 1 1 2 3 4 2 2 3 3 2 1 3 4 4 4 6 6 5 5 4 4 3 2 1 4 1 3 3 3 3 7 6 3 1 3 5 4 9 14 12 12 18 23 23 21 19 17 15
13 4 5 12 15 21 22 11 5 6 4 5 6 6 8 7 4 6 10 10 7 4 3 2 2 4 4 3 3 3 3 3 4 4 3 4 5 4 1 2 2 1 2 3 3 2 2 3 3 3 3 4 4 3 0 3 4 5 3 3 3 3 4 4 6 3 1 2 1 2 6 5 1 2 4 4 7 13 19 20 20 23 26 24 21 19 16 14
13 7 8 13 16 21 18 6 4 6 4 5 7 9 11 7 3 6 7 8 6 3 3 3 3 4 4 3 3 3 3 2 4 5 3 4 4 2 1 1 2 3 2 1 1 1 3 2 2 3 3 2 3 4 4 4 4 2 1 1 3 3 3 4 4 2 2 3 1 1 5 3 1 3 2 4 10 14 20 23 22 21 23 23 21 19 17 15
12 9 9 12 17 22 15 5 5 7 5 5 6 9 11 8 6 7 6 7 7 4 3 3 4 6 5 3 4 5 5 3 4 5 4 4 3 0 1 2 3 2 2 2 2 2 1 1 2 1 3 3 3 3 4 4 1 1 2 1 1 3 4 3 1 2 1 4 5 4 6 3 1 3 4 4 8 10 15 20 18 18 22 23 20 19 18 17
9 6 8 13 21 23 14 6 5 6 7 7 6 7 9 6 8 12 10 9 10 7 4 3 6 7 5 4 4 5 6 5 4 3 2 2 1 1 2 1 4 6 4 5 7 5 3 2 3 3 4 6 4 3 2 2 1 1 1 2 1 4 5 3 2 2 2 2 4 5 5 4 3 2 2 1 3 6 10 15 16 16 19 21 20 20 21 20
8 4 5 9 18 23 18 11 5 3 4 6 5 6 9 7 5 10 13 11 12 10 3 2 6 6 4 5 5 4 6 6 4 3 3 3 3 2 3 3 2 6 5 6 9 6 3 1 3 5 7 7 5 5 4 2 3 2 2 3 4 3 4 4 2 3 2 1 3 6 6 5 7 4 4 5 5 6 8 12 15 17 19 20 20 22 23 22
7 3 6 7 9 15 16 13 9 3 2 6 4 2 9 10 4 5 10 9 10 12 5 2 5 6 4 6 5 4 6 5 5 5 3 3 2 2 2 3 3 5 4 5 6 4 3 2 4 5 6 4 4 4 3 3 3 5 4 5 7 6 5 5 4 4 3 1 7 10 6 5 9 9 6 7 7 6 8 13 17 19 21 23 22 22 23 22
6 2 9 11 6 6 9 13 13 8 4 5 4 0 5 10 8 7 8 4 6 11 8 4 6 8 7 7 5 4 5 5 6 6 3 2 1 0 1 2 1 0 1 2 2 3 4 3 3 3 4 2 5 4 2 2 1 3 5 8 10 9 7 7 6 6 7 7 10 10 6 6 10 11 5 7 9 11 13 16 18 20 22 23 23 24 25 24
7 2 7 11 6 3 8 15 16 13 9 6 4 3 4 7 9 8 5 2 3 8 10 7 7 8 8 8 7 6 6 6 6 4 3 3 3 3 1 1 2 1 1 2 1 2 3 1 1 2 2 2 2 2 4 4 3 4 7 11 11 12 10 6 7 10 10 9 11 11 11 12 13 10 5 7 11 14 16 17 17 19 22 23 24 26 27 25
7 4 4 7 5 3 7 13 14 11 10 8 8 7 4 5 7 5 4 5 5 5 8 11 10 8 9 10 11 10 8 8 7 6 6 5 3 4 3 2 2 2 1 1 0 1 1 1 1 3 1 4 3 2 2 4 4 5 9 12 11 8 8 8 10 9 6 8 12 11 10 13 13 6 3 8 10 10 13 16 19 20 20 22 25 27 26 25
9 6 4 3 3 3 5 9 9 7 7 8 9 8 6 8 8 4 2 5 7 4 6 11 10 6 6 9 11 12 10 10 8 7 8 8 6 5 3 4 6 5 2 2 1 1 1 1 1 5 2 4 4 1 0 2 2 5 12 15 12 8 9 9 7 6 8 10 11 8 7 10 11 5 4 8 8 9 13 17 18 18 17 20 25 27 25 23
13 8 3 2 1 3 4 5 6 7 7 7 9 9 9 10 8 7 5 4 4 5 5 8 8 4 3 8 12 13 11 11 11 9 9 7 7 8 6 5 7 7 5 4 1 0 3 4 1 3 2 4 4 0 2 6 5 7 11 11 11 11 11 9 7 9 11 8 6 7 8 8 7 6 6 6 6 10 14 16 16 16 17 20 24 24 23 22
Wind_Direction
205 204 205 206 205 205 206 209 210 210 213 217 220 223 230 232 235 241 245 249 250 257 266 269 281 290 295 304 310 315 318 319 318 316 312 304 288 258 145 123 61 17 359 6 356 217 199 178 191 208 45 55 81 135 121 149 177 123 90 104 222 203 201 195 185 183 162 257 291 316 296 226 281 287 295 295 273 287 295 291 286 277 274 278 284 292 300 303
213 212 214 214 214 213 212 214 215 216 221 224 227 233 239 241 247 251 257 263 262 267 271 272 283 288 295 304 308 314 316 317 318 317 319 328 130 129 118 73 32 3 352 350 334 204 162 148 140 90 43 58 47 180 182 197 186 160 111 133 224 203 212 218 210 232 238 262 286 307 295 239 279 296 306 287 279 295 295 294 295 289 285 287 289 292 298 299
219 219 221 221 222 222 222 223 222 225 229 232 234 237 243 246 250 253 260 266 266 271 274 277 283 287 294 298 303 311 315 319 323 336 89 109 119 123 97 30 5 349 337 322 310 200 173 166 108 329 232 199 244 216 205 204 200 203 141 153 243 219 236 269 268 270 275 284 293 307 304 285 294 298 287 267 296 300 279 286 293 294 298 301 301 299 297 294
224 224 225 226 228 229 230 232 232 235 236 239 242 243 246 249 251 254 259 262 267 271 273 277 280 285 289 293 302 307 317 324 325 132 132 129 128 121 15 349 337 332 320 308 293 216 195 189 154 204 215 230 229 222 227 213 205 195 160 186 236 209 237 270 276 284 289 301 302 305 309 301 302 300 279 282 313 297 277 285 288 291 302 307 307 305 299 293
229 229 230 230 231 233 235 236 237 239 240 243 244 246 247 249 251 254 256 259 264 267 270 274 277 283 286 292 300 305 323 340 139 155 168 181 258 292 312 316 316 320 311 294 265 222 205 193 179 189 206 238 196 185 245 219 196 181 210 226 240 218 226 268 275 285 292 302 303 305 307 299 305 299 284 272 247 268 285 296 298 297 303 309 310 307 301 295
235 235 235 235 235 236 238 238 239 240 242 245 246 249 251 252 255 256 258 261 264 268 271 275 278 283 287 292 297 301 312 295 228 224 232 258 278 284 293 297 304 311 303 271 241 223 209 198 196 195 194 240 199 194 246 228 203 223 255 239 248 248 246 268 273 279 293 300 295 295 291 294 307 299 294 276 257 276 292 299 302 303 307 310 311 307 303 300
241 240 240 240 240 240 242 242 243 245 246 249 251 254 256 258 260 261 264 266 268 273 276 279 282 285 289 292 294 296 276 266 274 266 264 270 273 281 284 287 299 298 280 236 229 219 212 202 204 203 178 237 230 219 255 266 216 219 262 258 260 262 257 268 273 279 289 290 286 292 291 289 290 292 300 290 280 286 295 301 303 306 311 311 310 309 307 306
244 245 246 246 247 247 247 248 249 251 253 255 258 260 262 265 266 268 270 271 274 277 280 282 284 286 290 291 292 289 271 278 290 273 266 264 262 270 268 279 290 278 244 219 223 213 212 204 206 208 184 212 227 233 276 302 234 200 238 271 275 277 279 283 287 287 288 287 288 294 286 280 280 284 288 284 285 293 297 299 303 307 312 313 315 320 316 311
247 248 250 249 250 251 252 254 256 257 259 261 264 267 269 271 271 273 274 276 278 279 282 284 284 286 287 285 286 283 277 287 299 274 265 259 256 256 259 271 269 254 247 233 221 212 214 209 212 214 215 232 232 251 306 347 263 211 226 279 289 290 298 300 298 292 289 288 287 288 282 283 288 290 277 276 285 303 300 295 302 311 314 318 331 335 329 321
251 251 252 253 253 255 256 258 261 263 265 267 269 272 273 274 276 277 278 280 281 280 282 281 281 282 281 278 265 259 282 290 289 280 270 258 256 254 258 258 248 253 265 254 231 219 220 215 215 215 231 248 228 254 279 174 269 288 300 309 301 303 306 302 295 289 290 290 283 261 267 282 288 297 265 277 295 310 298 298 303 308 313 330 352 352 347 337
252 253 254 256 257 259 261 263 266 267 270 272 274 275 276 277 278 279 280 280 279 280 279 277 279 277 276 272 240 237 279 286 281 282 275 267 259 252 249 242 243 253 263 262 243 229 226 220 218 214 233 243 238 276 280 261 297 320 333 321 307 317 310 297 286 284 289 293 280 234 251 284 288 171 249 271 302 306 295 300 304 309 325 354 11 358 346 334
252 254 256 258 260 262 263 265 266 268 270 272 273 275 276 276 277 277 277 277 277 277 276 275 275 272 273 268 252 257 278 278 275 276 271 267 256 246 243 241 248 261 269 263 245 235 226 224 225 226 237 229 270 322 296 304 326 321 342 325 305 340 316 290 281 281 278 267 271 183 286 302 234 219 253 272 294 292 290 296 305 327 2 23 15 348 338 322
250 252 254 257 258 259 260 261 263 265 267 269 271 272 273 274 273 274 273 273 273 272 272 272 270 272 269 264 265 271 274 269 267 266 263 259 254 251 251 254 261 268 269 251 240 236 226 226 228 231 246 244 243 295 288 312 322 311 333 337 304 351 315 283 286 296 291 271 244 151 260 289 254 249 260 280 287 285 291 297 316 357 14 27 14 360 8 310
249 249 250 252 254 255 256 258 260 262 264 266 268 269 269 270 270 271 270 270 270 268 269 269 271 272 260 260 273 274 267 266 265 260 258 256 256 260 264 268 271 266 255 239 236 235 227 228 233 238 248 251 262 289 308 326 324 302 328 9 318 321 277 287 302 329 322 299 214 158 188 264 271 274 275 294 294 292 295 300 334 8 19 46 52 58 79 88
251 250 250 250 251 253 254 256 258 260 261 262 263 265 266 268 270 270 271 270 269 270 271 272 274 270 261 266 273 271 266 264 262 258 255 256 260 266 270 271 263 251 238 232 231 231 229 226 230 241 249 256 275 344 352 345 340 6 317 305 327 216 264 303 302 245 232 288 165 147 209 267 270 282 290 305 304 302 298 306 346 18 43 71 80 88 92 94
252 252 251 251 251 252 253 254 255 257 258 260 262 264 266 268 270 271 271 272 273 273 273 276 272 260 263 276 271 263 263 260 258 254 248 251 258 262 263 250 238 232 228 228 229 230 232 231 235 246 249 250 180 83 40 357 329 355 200 253 275 229 266 315 307 284 191 232 126 151 231 276 275 288 296 300 301 305 307 319 359 47 65 79 88 93 96 95
250 251 251 250 250 251 252 253 255 256 258 261 263 266 269 270 270 271 269 269 270 271 273 272 267 259 257 263 262 256 259 260 248 237 236 243 251 252 231 214 212 215 221 224 228 223 224 219 199 231 262 181 113 97 54 321 289 310 276 229 247 234 233 286 300 325 30 74 341 280 247 256 275 288 291 296 306 313 315 328 34 85 84 91 93 88 85 80
244 246 248 249 248 249 250 252 255 256 259 261 263 265 267 268 266 267 267 266 264 270 275 251 226 269 264 249 248 256 262 253 235 228 230 230 230 223 198 196 201 204 206 208 211 190 186 177 139 218 345 70 124 117 161 238 232 246 248 242 266 261 245 254 271 307 359 21 322 302 283 265 278 283 289 305 322 323 320 357 92 104 98 97 91 83 79 75
238 238 241 244 246 247 247 249 251 253 258 263 266 266 267 270 269 265 262 256 245 236 260 226 198 200 253 226 231 262 271 240 223 221 219 210 202 201 198 203 196 187 179 169 200 181 160 110 86 175 260 196 192 176 200 222 212 225 237 231 261 270 263 256 256 274 335 350 299 288 283 280 289 285 302 325 339 337 338 93 105 100 96 92 87 84 80 77
234 232 232 235 237 240 241 243 247 250 254 259 267 272 271 274 279 269 257 248 242 238 245 237 225 237 244 242 256 271 255 219 215 216 208 206 210 207 202 198 177 173 178 162 189 187 159 139 160 210 220 210 211 208 214 228 222 240 264 273 265 259 272 268 264 284 348 351 273 271 288 295 292 295 333 355 15 18 43 103 98 91 91 86 86 84 81 80
230 227 223 223 223 225 226 229 235 243 247 247 255 265 259 247 252 276 274 264 258 253 253 252 251 252 253 257 263 261 243 225 221 219 213 215 215 205 195 180 149 177 213 153 121 125 151 173 218 223 221 216 221 213 214 244 256 252 253 271 278 260 266 265 260 291 348 271 261 297 341 297 292 322 7 24 42 33 48 90 89 89 89 85 86 84 84 86
223 221 215 212 208 211 215 218 223 230 235 233 242 249 245 246 252 272 292 285 273 265 258 255 254 253 253 254 253 248 247 247 233 225 221 214 204 201 189 165 159 199 175 126 99 88 158 212 239 235 225 225 260 202 180 218 222 219 223 247 270 261 282 285 275 297 341 204 265 320 339 284 293 24 36 42 62 52 57 79 87 92 90 85 86 85 89 91
218 215 211 205 200 205 211 217 220 222 229 230 236 241 247 257 261 275 289 283 280 274 260 253 250 249 249 251 248 241 239 241 239 230 220 206 195 199 185 164 182 180 145 167 164 160 188 232 244 239 211 189 256 234 173 194 213 211 215 223 254 248 267 279 286 309 318 308 275 312 316 277 294 70 57 56 74 71 70 79 81 86 88 87 89 88 91 90
215 211 210 204 200 206 212 220 222 222 231 231 234 238 247 260 261 286 294 271 279 276 262 253 248 247 246 246 243 233 230 232 238 228 214 204 191 192 194 182 178 170 191 199 187 189 217 239 242 218 166 175 230 251 202 188 246 244 220 218 235 232 213 224 274 321 326 348 353 7 341 294 292 95 87 70 78 74 73 78 74 78 86 89 91 91 91 91
213 211 210 206 206 210 214 222 225 227 234 233 234 234 238 251 261 319 322 289 281 272 263 248 238 241 237 235 229 218 218 224 225 213 207 204 192 182 196 191 174 196 219 201 189 212 247 250 232 120 150 175 199 246 216 176 219 281 234 213 215 219 217 218 333 3 3 336 326 36 11 294 315 35 169 125 72 67 68 71 71 74 84 88 89 89 92 93
217 215 213 210 211 215 217 220 224 228 234 232 229 223 223 227 248 356 1 4 299 250 219 204 208 215 209 206 195 181 192 230 215 206 199 199 197 184 169 187 176 207 214 187 181 217 240 242 222 168 170 156 175 241 230 165 157 275 247 202 188 181 174 156 66 47 36 260 279 57 111 260 313 317 200 161 93 85 73 67 72 77 82 89 91 93 96 96
222 221 219 217 216 218 221 221 219 220 221 223 220 213 216 198 146 52 42 358 290 203 154 168 182 179 184 177 166 158 163 191 179 192 191 189 195 188 186 207 175 204 193 134 192 243 207 224 215 191 188 169 189 241 223 162 142 235 241 137 131 137 154 158 114 137 219 258 316 1 150 238 292 281 210 155 121 101 91 76 76 82 87 93 97 99 101 100
226 224 223 223 221 224 230 230 227 223 219 219 215 209 207 179 161 113 78 281 267 124 124 157 154 155 161 163 166 162 143 145 143 181 182 181 188 183 205 216 173 200 193 129 202 259 189 187 202 181 176 197 212 223 188 157 152 236 201 123 123 141 155 151 124 187 267 357 309 301 166 246 263 271 247 147 156 161 147 134 100 96 100 103 105 105 103 103
225 223 223 223 224 230 237 239 236 231 227 222 210 203 195 178 161 97 104 230 216 98 133 153 139 150 145 149 168 166 137 139 133 171 169 179 189 175 205 208 171 194 248 147 208 256 270 217 206 155 157 207 212 215 176 162 183 213 154 110 70 76 94 97 115 123 37 8 251 235 190 210 263 279 291 153 210 203 163 146 131 121 118 116 113 111 109 107
226 226 224 221 223 228 234 238 235 231 231 224 215 211 196 172 143 120 207 222 131 100 132 146 163 162 141 132 156 182 159 154 98 139 151 175 184 167 122 165 128 121 340 356 258 262 306 319 232 161 190 193 152 93 96 148 152 130 105 68 28 28 47 51 79 91 61 278 247 219 195 189 270 281 221 186 250 188 154 148 150 138 132 128 122 118 116 113
230 228 223 221 226 228 234 237 233 228 229 226 223 218 195 160 137 201 215 209 52 116 121 140 186 156 147 138 160 184 141 98 133 133 134 147 158 143 101 123 85 76 360 334 306 308 325 312 267 237 208 147 111 76 25 45 93 100 85 67 39 342 12 26 359 46 108 255 264 226 177 165 224 264 270 302 320 205 159 161 163 150 142 136 130 126 122 119
234 231 226 225 229 231 232 237 238 233 230 230 226 211 178 158 211 213 208 54 90 182 152 172 191 164 164 140 158 180 140 158 180 142 134 144 156 187 169 170 166 88 341 258 262 335 310 252 270 309 239 170 120 78 9 10 44 85 93 87 80 317 347 352 302 341 216 252 266 186 133 159 228 249 315 335 336 331 146 151 155 150 145 141 138 136 130 126
238 237 234 230 234 237 236 240 242 237 230 224 214 193 147 204 222 183 176 193 195 180 126 137 151 155 156 140 177 185 147 172 189 169 151 128 145 231 241 205 176 136 212 208 212 333 293 295 303 345 274 198 155 147 201 276 106 138 141 128 132 159 188 258 261 268 263 269 272 190 142 276 257 290 339 336 337 19 116 136 146 145 144 145 144 141 135 132
235 236 236 234 236 239 240 241 237 231 217 200 187 154 140 222 236 155 183 200 124 45 57 76 108 133 145 165 205 178 150 205 180 153 138 126 136 247 250 222 194 144 116 153 182 186 227 301 237 187 232 183 172 184 168 139 145 175 158 139 148 160 168 212 222 214 253 280 292 263 216 217 212 291 324 345 26 86 116 131 139 140 144 146 144 142 138 134
230 230 232 233 234 236 237 233 224 215 192 175 153 108 195 207 270 167 191 191 108 76 43 35 81 121 187 278 246 185 170 229 167 130 148 165 171 199 204 206 190 161 133 159 222 179 182 265 249 252 197 162 172 195 138 108 115 203 127 118 165 187 160 177 207 176 184 289 293 236 223 204 172 254 329 38 63 91 116 131 137 142 149 150 149 147 143 137
216 217 219 225 228 228 227 219 209 196 181 165 137 215 208 196 178 185 188 142 159 146 126 81 77 136 218 297 274 231 357 111 143 134 206 202 205 208 212 226 191 175 167 167 209 180 149 270 281 342 293 179 176 176 140 129 190 157 122 178 212 180 127 115 270 40 84 257 271 212 226 292 117 252 340 54 72 94 118 134 142 150 156 158 158 154 148 144
189 193 199 210 214 215 211 202 195 189 181 168 179 208 189 270 194 184 256 111 142 139 140 158 174 176 198 222 230 219 165 121 142 144 211 230 234 201 203 246 202 186 192 188 219 209 162 265 280 177 205 241 167 126 85 35 122 129 179 209 196 98 82 97 232 348 41 242 271 227 206 234 208 229 309 75 153 177 177 163 156 163 170 171 168 160 155 152
180 187 195 193 193 198 191 181 185 189 182 177 228 215 162 241 223 175 139 129 77 93 142 189 198 176 183 189 223 202 161 177 171 159 196 238 245 180 164 221 215 204 210 197 218 244 146 247 283 223 171 264 64 108 70 2 55 120 187 190 112 118 244 83 152 225 231 243 274 284 252 227 202 196 192 205 204 194 189 186 180 184 186 182 174 167 163 159
200 199 210 198 190 191 183 179 187 188 180 199 238 227 189 229 258 260 224 206 45 102 147 212 194 154 183 177 189 179 168 184 175 170 185 195 227 188 142 182 200 243 221 188 187 247 134 169 278 307 154 265 37 102 187 258 17 59 73 19 52 149 171 167 163 173 193 235 269 294 307 273 230 195 181 202 203 181 178 192 196 195 190 184 176 171 169 166
214 205 226 209 196 196 194 193 191 179 172 208 202 220 261 256 259 251 243 241 215 155 207 214 177 186 201 193 197 175 177 192 174 182 213 194 221 231 127 145 172 79 136 174 182 225 109 182 246 303 324 169 163 207 195 186 172 140 154 218 256 139 124 240 231 135 146 190 232 275 284 265 250 190 188 214 207 177 183 187 186 192 190 184 179 175 174 172
210 201 236 212 201 200 194 190 196 186 189 215 192 199 237 233 236 240 236 229 216 211 207 193 198 203 193 201 210 175 170 189 181 195 220 209 226 237 207 50 173 159 80 135 191 202 171 186 194 232 254 190 223 254 211 188 175 162 178 198 194 170 128 246 262 208 145 191 198 229 267 269 260 229 229 239 202 174 181 173 171 190 191 187 185 182 181 181
201 198 218 207 203 197 188 183 196 195 207 220 206 205 213 217 220 215 213 210 211 208 187 200 230 212 203 204 197 173 169 192 204 208 223 228 224 215 166 48 2 303 126 143 208 196 131 130 172 214 213 205 247 302 26 164 143 136 170 180 163 152 136 185 239 235 183 256 205 190 257 274 252 256 263 225 177 169 175 174 178 190 193 190 189 187 187 188
196 193 196 200 198 187 184 197 204 194 218 217 209 216 213 209 207 201 196 197 198 173 172 206 208 208 224 202 173 178 172 180 207 202 217 242 229 215 180 152 22 7 57 115 270 101 96 113 178 254 305 332 324 339 11 42 80 113 261 113 133 156 146 174 214 180 161 250 242 207 249 248 221 296 309 157 162 166 175 180 184 191 195 193 192 193 194 194
189 187 182 190 188 180 184 219 203 203 221 198 199 218 218 218 213 202 192 192 193 166 160 198 200 209 223 181 165 191 185 188 215 204 207 221 212 244 341 186 172 157 154 191 193 166 156 130 131 151 313 321 332 346 355 356 37 165 281 320 98 105 101 104 143 122 175 220 204 221 248 243 297 345 20 107 148 166 181 186 191 196 195 196 200 201 203 203
168 177 183 186 184 185 203 235 201 212 221 203 211 214 210 227 222 209 206 202 199 180 159 207 199 191 195 170 167 195 197 206 221 209 200 224 265 337 19 349 189 178 182 183 166 153 162 176 137 148 218 241 239 218 229 261 242 175 288 276 149 122 130 131 140 185 218 213 199 227 249 273 319 11 15 345 170 184 197 197 205 209 203 206 213 213 213 213
157 169 185 183 189 202 225 236 202 200 212 205 224 217 209 226 229 207 206 212 213 200 190 237 189 174 186 178 171 200 212 215 216 207 186 196 261 303 13 9 155 153 143 148 152 140 120 197 192 184 218 234 212 206 209 155 144 202 252 230 210 190 154 129 147 202 200 38 270 246 229 254 280 257 220 236 218 207 217 214 217 220 220 224 227 223 220 217
155 180 178 166 193 215 231 233 211 183 173 197 209 214 212 219 234 213 205 211 214 202 209 272 193 187 198 176 176 213 210 205 209 208 187 172 235 295 352 27 89 131 130 135 146 126 104 229 225 197 225 228 157 177 195 123 162 209 230 244 240 220 163 158 207 212 154 177 260 253 216 207 257 256 217 208 220 225 230 225 225 228 231 234 232 224 216 209
164 196 180 172 179 208 218 220 210 196 183 197 205 296 211 210 212 213 206 214 215 197 201 245 216 206 196 167 172 210 195 195 210 199 171 151 177 293 339 348 13 135 114 99 109 105 123 224 239 173 217 198 122 138 163 135 209 230 236 252 255 246 217 201 218 209 191 220 255 263 252 229 252 262 233 194 208 221 229 232 234 237 239 238 230 216 206 201
187 205 183 183 196 222 208 206 202 204 206 201 214 232 205 200 208 213 194 168 238 210 201 222 226 209 197 179 184 207 200 195 209 205 169 163 173 157 152 288 276 234 83 69 35 80 122 208 233 139 244 281 103 177 190 168 204 244 245 245 248 254 251 234 232 226 217 231 252 262 265 260 258 260 246 225 224 226 236 244 245 244 243 236 224 211 203 200
189 198 183 189 216 249 208 194 190 205 213 205 221 228 207 203 214 214 191 189 217 217 199 216 224 202 197 199 200 215 211 188 196 208 181 169 193 193 189 206 180 133 63 95 25 350 103 180 113 91 353 312 322 276 211 175 198 237 255 253 248 256 260 246 240 239 232 240 247 250 257 264 264 254 241 259 248 227 232 242 245 246 242 231 219 209 204 202
181 175 150 152 201 205 196 186 179 197 213 208 220 218 208 224 217 193 224 226 218 215 201 209 213 200 200 203 204 216 209 179 177 187 172 166 175 176 181 185 158 140 140 165 172 348 110 174 31 71 84 281 307 338 341 39 12 277 267 259 248 243 247 244 233 219 218 232 243 246 245 256 266 268 262 263 242 211 218 227 231 236 232 221 213 206 202 200
197 199 181 138 185 198 188 174 171 196 210 205 213 215 215 225 212 193 236 264 201 211 236 212 193 174 196 205 212 219 198 151 124 114 115 112 103 100 103 136 148 146 160 162 147 129 134 139 130 100 135 271 297 320 60 43 17 283 266 248 233 232 239 248 251 237 228 222 224 233 235 242 257 275 279 260 216 207 219 218 216 220 215 209 208 204 200 198